Погода в Одиноке

Россия / Орловская область     53°03′32″N   36°53′19″E
темп.,
°C
ветер,
м/с
пор.,
м/с
влажн.,
%
обл.,
%
осадки,
мм/ч
давл.,
гПа
погр.,
м
2 июля, сб
сб200:00+9ссв22810 0.0 102217
03:00+8с34850 0.0 102246
06:00+9с410810 0.0 1023255
09:00+16с69645 0.0 1023757
12:00+19ссв67552 0.0 10221396
15:00+21с68520 0.0 10211569
18:00+20ссз48621 0.0 10201240
21:00+15сз48822 0.0 1020127
3 июля, вс
вс300:00+13сз34790 0.0 102054
03:00+12сз34785 0.0 101960
06:00+13сз38805 0.0 1019175
09:00+19сз5864100 0.0 1018350
12:00+22сз59670 0.0 1017765
15:00+25ссз695722 0.0 10161596
18:00+24ссз47719 0.8 1016390
21:00+20ссз117781 1.1 101612
4 июля, пн
пн400:00+19зюз117985 0.0 101611
03:00+17зсз229092 0.0 101715
06:00+17ссз358899 0.0 1017122
09:00+22с467096 0.0 1017412
12:00+25с45595 0.0 10171207
15:00+27ссв355042 0.0 10172263
18:00+24св226875 0.0 101743
21:00+20ю11797 0.1 101811
5 июля, вт
вт500:00+18ю228229 0.0 101811
03:00+18зсз2284100 0.3 101929
06:00+19юз118564 0.0 101941
09:00+24зюз226825 0.0 1019365
12:00+27зюз225495 0.3 10191286
15:00+28з335094 0.3 10181983
18:00+27зюз2362100 0.1 10181048
21:00+21ссз118172 0.4 101811
6 июля, ср
ср600:00+19ю22835 0.1 101814
03:00+18ююз358783 0.8 101886
06:00+18ююз368420 0.0 1018142
09:00+24юз466381 0.0 1018421
12:00+27ююз455365 0.0 10171062
15:00+28ююз565018 0.0 10161540
18:00+26ю476160 0.0 1016446
21:00+21ю4107156 0.0 1015187